EW5801 Weather Reports


Display with metric or nautical units.
time (UTC)temp
F
wind
direction
speed
MPH
gust
MPH
rain 1hr
in
rain 24hr
in
rain mn
in
humidity
%
barometer
mb
20210619154507 84 0.0 0.0 0.00 0.00 0.00 28 1010.6
20210619154001 84 0.0 0.0 0.00 0.00 0.00 24 1010.6
20210619153501 84 0.0 0.0 0.00 0.00 0.00 26 1010.6
20210619152948 84 0.0 0.0 0.00 0.00 0.00 25 1010.6
20210619152422 84 0.0 0.0 0.00 0.00 0.00 22 1010.6
20210619151922 84 0.0 0.0 0.00 0.00 0.00 21 1010.7
20210619151421 83 0.0 0.0 0.00 0.00 0.00 21 1010.6
20210619150904 83 0.0 0.0 0.00 0.00 0.00 19 1010.7
20210619150403 83 0.0 0.0 0.00 0.00 0.00 19 1010.6
20210619145842 83 0.0 0.0 0.00 0.00 0.00 18 1010.7
20210619145327 83 0.0 0.0 0.00 0.00 0.00 17 1010.7
20210619144820 83 0.0 0.0 0.00 0.00 0.00 14 1010.7
20210619144307 83 0.0 0.0 0.00 0.00 0.00 16 1010.7
20210619143806 83 0.0 0.0 0.00 0.00 0.00 14 1010.8
20210619143303 83 0.0 0.0 0.00 0.00 0.00 14 1010.7
20210619142800 82 0.0 0.0 0.00 0.00 0.00 12 1010.6
20210619142226 82 0.0 0.0 0.00 0.00 0.00 9 1010.7
20210619141725 82 0.0 0.0 0.00 0.00 0.00 7 1010.6
20210619141223 81 0.0 0.0 0.00 0.00 0.00 5 1010.6
20210619140719 81 0.0 0.0 0.00 0.00 0.00 5 1010.6
20210619140155 81 0.0 0.0 0.00 0.00 0.00 4 1010.7
20210619135640 80 0.0 0.0 0.00 0.00 0.00 2 1010.6
20210619135124 80 0.0 0.0 0.00 0.00 0.00 1 1010.6
20210619134622 80 0.0 0.0 0.00 0.00 0.00 100 1010.5
20210619134120 80 0.0 0.0 0.00 0.00 0.00 100 1010.5
20210619133620 79 0.0 0.0 0.00 0.00 0.00 1 1010.3
20210619133121 79 0.0 0.0 0.00 0.00 0.00 100 1010.4
20210619132607 79 0.0 0.0 0.00 0.00 0.00 100 1010.4
20210619132105 78 0.0 0.0 0.00 0.00 0.00 100 1010.4
20210619131536 78 0.0 0.0 0.00 0.00 0.00 100 1010.3
20210619131026 78 0.0 0.0 0.00 0.00 0.00 1 1010.3
20210619130523 78 0.0 0.0 0.00 0.00 0.00 2 1010.1
20210619130023 78 0.0 0.0 0.00 0.00 0.00 2 1010.1
20210619125520 78 0.0 0.0 0.00 0.00 0.00 2 1010.0
20210619125019 77 0.0 0.0 0.00 0.00 0.00 1 1010.0
20210619124515 77 0.0 0.0 0.00 0.00 0.00 1 1010.0
20210619124003 77 0.0 0.0 0.00 0.00 0.00 1 1010.1
20210619123458 77 0.0 0.0 0.00 0.00 0.00 2 1010.0
20210619122949 76 0.0 0.0 0.00 0.00 0.00 2 1010.0
20210619122437 76 0.0 0.0 0.00 0.00 0.00 3 1010.0
20210619121927 76 0.0 0.0 0.00 0.00 0.00 4 1009.9
20210619121419 76 0.0 0.0 0.00 0.00 0.00 4 1009.9
20210619120418 76 0.0 0.0 0.00 0.00 0.00 5 1009.9
20210619115915 76 0.0 0.0 0.00 0.00 0.00 6 1009.8
20210619115410 76 0.0 0.0 0.00 0.00 0.00 6 1009.7
20210619114902 76 0.0 0.0 0.00 0.00 0.00 6 1009.8
20210619114324 76 0.0 0.0 0.00 0.00 0.00 6 1009.7
20210619113819 76 0.0 0.0 0.00 0.00 0.00 7 1009.7
20210619113317 76 0.0 0.0 0.00 0.00 0.00 6 1009.7
20210619112815 76 0.0 0.0 0.00 0.00 0.00 6 1009.8
20210619112300 76 0.0 0.0 0.00 0.00 0.00 7 1009.8
20210619111758 76 0.0 0.0 0.00 0.00 0.00 7 1009.6
20210619111234 76 0.0 0.0 0.00 0.00 0.00 6 1009.6
20210619110730 76 0.0 0.0 0.00 0.00 0.00 8 1009.7
20210619110222 76 0.0 0.0 0.00 0.00 0.00 10 1009.7
20210619105722 76 0.0 0.0 0.00 0.00 0.00 8 1009.6
20210619105205 76 0.0 0.0 0.00 0.00 0.00 7 1009.6
20210619104641 76 0.0 0.0 0.00 0.00 0.00 7 1009.6
20210619104128 76 0.0 0.0 0.00 0.00 0.00 8 1009.4
20210619103624 77 0.0 0.0 0.00 0.00 0.00 9 1009.4
20210619103122 77 0.0 0.0 0.00 0.00 0.00 9 1009.4
20210619102620 77 0.0 0.0 0.00 0.00 0.00 9 1009.3
20210619102119 77 0.0 0.0 0.00 0.00 0.00 9 1009.4
20210619101614 77 0.0 0.0 0.00 0.00 0.00 9 1009.4
20210619101053 77 0.0 0.0 0.00 0.00 0.00 9 1009.4
20210619100523 77 0.0 0.0 0.00 0.00 0.00 10 1009.4
20210619100018 77 0.0 0.0 0.00 0.00 0.00 9 1009.3
20210619095441 77 0.0 0.0 0.00 0.00 0.00 9 1009.3
20210619094927 77 0.0 0.0 0.00 0.00 0.00 10 1009.3
20210619094419 77 0.0 0.0 0.00 0.00 0.00 9 1009.4
20210619093918 77 0.0 0.0 0.00 0.00 0.00 8 1009.3
20210619093409 77 0.0 0.0 0.00 0.00 0.00 9 1009.4
20210619092827 77 0.0 0.0 0.00 0.00 0.00 10 1009.3
20210619092321 77 0.0 0.0 0.00 0.00 0.00 11 1009.3
20210619091820 77 0.0 0.0 0.00 0.00 0.00 12 1009.3
20210619091320 77 0.0 0.0 0.00 0.00 0.00 13 1009.2
20210619090802 77 0.0 0.0 0.00 0.00 0.00 12 1009.2
20210619090241 77 0.0 0.0 0.00 0.00 0.00 12 1009.3
20210619085732 77 0.0 0.0 0.00 0.00 0.00 12 1009.3
20210619085213 77 0.0 0.0 0.00 0.00 0.00 14 1009.3
20210619084637 78 0.0 0.0 0.00 0.00 0.00 12 1009.3
20210619084129 78 0.0 0.0 0.00 0.00 0.00 11 1009.3
20210619083625 78 0.0 0.0 0.00 0.00 0.00 10 1009.4
20210619083123 78 0.0 0.0 0.00 0.00 0.00 10 1009.6
20210619082623 77 0.0 0.0 0.00 0.00 0.00 11 1009.4
20210619082117 77 0.0 0.0 0.00 0.00 0.00 13 1009.4
20210619081618 77 0.0 0.0 0.00 0.00 0.00 14 1009.4
20210619081056 77 0.0 0.0 0.00 0.00 0.00 13 1009.6
20210619080523 77 0.0 0.0 0.00 0.00 0.00 13 1009.5
20210619080021 77 0.0 0.0 0.00 0.00 0.00 13 1009.6
20210619075519 77 0.0 0.0 0.00 0.00 0.00 13 1009.7
20210619074939 77 0.0 0.0 0.00 0.00 0.00 15 1009.7
20210619074423 78 0.0 0.0 0.00 0.00 0.00 16 1009.7
20210619073921 78 0.0 0.0 0.00 0.00 0.00 16 1009.8
20210619073420 78 0.0 0.0 0.00 0.00 0.00 15 1009.9
20210619072916 78 0.0 0.0 0.00 0.00 0.00 16 1009.8
20210619072417 78 0.0 0.0 0.00 0.00 0.00 17 1009.9
20210619071838 78 0.0 0.0 0.00 0.00 0.00 17 1009.9
20210619071326 78 0.0 0.0 0.00 0.00 0.00 17 1009.9
20210619070753 78 0.0 0.0 0.00 0.00 0.00 18 1010.0
20210619070245 78 0.0 0.0 0.00 0.00 0.00 18 1010.0
20210619065719 78 0.0 0.0 0.00 0.00 0.00 18 1010.0
20210619065135 78 0.0 0.0 0.00 0.00 0.00 18 1010.1
20210619064622 78 0.0 0.0 0.00 0.00 0.00 18 1010.1
20210619064123 78 0.0 0.0 0.00 0.00 0.00 18 1010.2
20210619063619 78 0.0 0.0 0.00 0.00 0.00 19 1010.4
20210619063051 78 0.0 0.0 0.00 0.00 0.00 19 1010.5
20210619062551 78 0.0 0.0 0.00 0.00 0.00 20 1010.6
20210619062024 78 0.0 0.0 0.00 0.00 0.00 20 1010.5
20210619061520 78 0.0 0.0 0.00 0.00 0.00 20 1010.6
20210619061022 78 0.0 0.0 0.00 0.00 0.00 21 1010.7
20210619060506 79 0.0 0.0 0.00 0.00 0.00 21 1010.7
20210619055929 79 0.0 0.0 0.00 0.00 0.00 21 1010.7
20210619055429 79 0.0 0.0 0.00 0.00 0.00 22 1010.7
20210619054922 79 0.0 0.0 0.00 0.00 0.00 23 1010.7
20210619054420 79 0.0 0.0 0.00 0.00 0.00 24 1010.7
20210619053920 79 0.0 0.0 0.00 0.00 0.00 23 1010.9
20210619053403 79 0.0 0.0 0.00 0.00 0.00 23 1010.8
20210619052836 79 0.0 0.0 0.00 0.00 0.00 24 1010.8
20210619052327 79 0.0 0.0 0.00 0.00 0.00 25 1010.9
20210619051823 79 0.0 0.0 0.00 0.00 0.00 26 1010.9
20210619051249 80 0.0 0.0 0.00 0.00 0.00 26 1010.9
20210619050719 80 0.0 0.0 0.00 0.00 0.00 26 1011.0
20210619050209 80 0.0 0.0 0.00 0.00 0.00 27 1010.9
20210619045634 80 0.0 0.0 0.00 0.00 0.00 28 1010.8
20210619045133 80 0.0 0.0 0.00 0.00 0.00 29 1010.9
20210619044624 80 0.0 0.0 0.00 0.00 0.00 30 1010.8
20210619044122 80 0.0 0.0 0.00 0.00 0.00 30 1010.7
20210619043619 80 0.0 0.0 0.00 0.00 0.00 31 1010.8
20210619043118 80 0.0 0.0 0.00 0.00 0.00 31 1010.7
20210619042602 80 0.0 0.0 0.00 0.00 0.00 31 1010.7
20210619042034 80 0.0 0.0 0.00 0.00 0.00 33 1010.7
20210619041528 81 0.0 0.0 0.00 0.00 0.00 33 1010.8
20210619041027 81 0.0 0.0 0.00 0.00 0.00 33 1010.6
20210619040520 81 0.0 0.0 0.00 0.00 0.00 33 1010.5
20210619040020 81 0.0 0.0 0.00 0.00 0.00 34 1010.5
20210619035520 81 0.0 0.0 0.00 0.00 0.00 34 1010.6
20210619035010 81 0.0 0.0 0.00 0.00 0.00 35 1010.3
20210619034513 81 0.0 0.0 0.00 0.00 0.00 36 1010.3
20210619033954 81 0.0 0.0 0.00 0.00 0.00 37 1010.3
20210619033427 81 0.0 0.0 0.00 0.00 0.00 37 1010.1
20210619032918 81 0.0 0.0 0.00 0.00 0.00 38 1010.2
20210619032418 81 0.0 0.0 0.00 0.00 0.00 39 1010.0
20210619031858 81 0.0 0.0 0.00 0.00 0.00 40 1009.9
20210619031328 81 0.0 0.0 0.00 0.00 0.00 41 1009.8
20210619030821 82 0.0 0.0 0.00 0.00 0.00 42 1009.8
20210619030321 82 0.0 0.0 0.00 0.00 0.00 43 1009.8
20210619025800 82 0.0 0.0 0.00 0.00 0.00 44 1009.6
20210619025259 82 0.0 0.0 0.00 0.00 0.00 46 1009.7
20210619024723 82 0.0 0.0 0.00 0.00 0.00 47 1009.6
20210619024222 82 0.0 0.0 0.00 0.00 0.00 49 1009.6
20210619023720 82 0.0 0.0 0.00 0.00 0.00 51 1009.5
20210619023206 83 0.0 0.0 0.00 0.00 0.00 52 1009.5
20210619022656 83 0.0 0.0 0.00 0.00 0.00 54 1009.4
20210619022128 83 0.0 0.0 0.00 0.00 0.00 55 1009.2
20210619021623 83 0.0 0.0 0.00 0.00 0.00 56 1009.3
20210619021115 83 0.0 0.0 0.00 0.00 0.00 56 1009.3
20210619020611 83 0.0 0.0 0.00 0.00 0.00 57 1009.2
20210619020038 83 0.0 0.0 0.00 0.00 0.00 58 1009.1
20210619015534 84 0.0 0.0 0.00 0.00 0.00 59 1009.0
20210619015023 84 0.0 0.0 0.00 0.00 0.00 59 1009.1
20210619014524 84 0.0 0.0 0.00 0.00 0.00 60 1009.1
20210619014010 84 0.0 0.0 0.00 0.00 0.00 61 1009.1
20210619013509 84 0.0 0.0 0.00 0.00 0.00 61 1009.1
20210619012937 85 0.0 0.0 0.00 0.00 0.00 61 1009.0
20210619012426 85 0.0 0.0 0.00 0.00 0.00 62 1009.1
20210619011927 85 0.0 0.0 0.00 0.00 0.00 62 1009.0
20210619011415 85 0.0 0.0 0.00 0.00 0.00 62 1009.0
20210619010901 86 0.0 0.0 0.00 0.00 0.00 62 1009.0
20210619010348 86 0.0 0.0 0.00 0.00 0.00 62 1008.9
20210619005840 86 0.0 0.0 0.00 0.00 0.00 62 1008.9
20210619005339 86 0.0 0.0 0.00 0.00 0.00 62 1008.9
20210619004835 86 0.0 0.0 0.00 0.00 0.00 62 1008.8
20210619004333 87 0.0 0.0 0.00 0.00 0.00 62 1008.8
20210619003825 87 0.0 0.0 0.00 0.00 0.00 62 1008.7
20210619003319 87 0.0 0.0 0.00 0.00 0.00 61 1008.7
20210619002819 87 0.0 0.0 0.00 0.00 0.00 61 1008.7
20210619002307 87 0.0 0.0 0.00 0.00 0.00 61 1008.7
20210619001804 88 0.0 0.0 0.00 0.00 0.00 61 1008.7
20210619001239 88 0.0 0.0 0.00 0.00 0.00 61 1008.6
20210619000738 88 0.0 0.0 0.00 0.00 0.00 61 1008.7
20210619000234 88 0.0 0.0 0.00 0.00 0.00 61 1008.5
20210618235728 88 0.0 0.0 0.00 0.00 0.00 60 1008.6
20210618235226 88 0.0 0.0 0.00 0.00 0.00 60 1008.5
20210618234718 88 0.0 0.0 0.00 0.00 0.00 60 1008.6
20210618234212 89 0.0 0.0 0.00 0.00 0.00 60 1008.7
20210618233653 89 0.0 0.0 0.00 0.00 0.00 60 1008.7
20210618233139 89 0.0 0.0 0.00 0.00 0.00 60 1008.7
20210618232621 89 0.0 0.0 0.00 0.00 0.00 60 1008.8
20210618232121 89 0.0 0.0 0.00 0.00 0.00 60 1008.7
20210618231624 89 0.0 0.0 0.00 0.00 0.00 60 1008.6
20210618231121 89 0.0 0.0 0.00 0.00 0.00 59 1008.6
20210618230620 89 0.0 0.0 0.00 0.00 0.00 60 1008.7
20210618230102 89 0.0 0.0 0.00 0.00 0.00 58 1008.8
20210618225558 90 0.0 0.0 0.00 0.00 0.00 56 1008.8
20210618225057 90 0.0 0.0 0.00 0.00 0.00 57 1008.7
20210618224528 90 0.0 0.0 0.00 0.00 0.00 58 1008.7
20210618224020 90 0.0 0.0 0.00 0.00 0.00 56 1008.7
20210618223506 91 0.0 0.0 0.00 0.00 0.00 54 1008.6
20210618223000 91 0.0 0.0 0.00 0.00 0.00 50 1008.7
20210618222452 91 0.0 0.0 0.00 0.00 0.00 51 1008.7
20210618221922 91 0.0 0.0 0.00 0.00 0.00 51 1008.6
20210618221420 91 0.0 0.0 0.00 0.00 0.00 52 1008.8
20210618220920 91 0.0 0.0 0.00 0.00 0.00 50 1008.8
20210618220419 90 0.0 0.0 0.00 0.00 0.00 53 1008.7
20210618215921 90 0.0 0.0 0.00 0.00 0.00 52 1008.9
20210618215420 90 0.0 0.0 0.00 0.00 0.00 52 1008.9
20210618214919 90 0.0 0.0 0.00 0.00 0.00 53 1008.9
20210618214414 90 0.0 0.0 0.00 0.00 0.00 54 1009.0
20210618213910 90 0.0 0.0 0.00 0.00 0.00 52 1009.0
20210618213410 90 0.0 0.0 0.00 0.00 0.00 52 1009.0
20210618212849 90 0.0 0.0 0.00 0.00 0.00 54 1009.0
20210618212322 89 0.0 0.0 0.00 0.00 0.00 54 1009.0
20210618211818 89 0.0 0.0 0.00 0.00 0.00 55 1009.0
20210618211318 89 0.0 0.0 0.00 0.00 0.00 55 1009.1
20210618210816 89 0.0 0.0 0.00 0.00 0.00 57 1009.1
20210618210316 89 0.0 0.0 0.00 0.00 0.00 55 1009.1
20210618205800 89 0.0 0.0 0.00 0.00 0.00 58 1009.1
20210618205239 89 0.0 0.0 0.00 0.00 0.00 57 1009.2
20210618204726 89 0.0 0.0 0.00 0.00 0.00 58 1009.1
20210618204221 89 0.0 0.0 0.00 0.00 0.00 57 1009.3
20210618203721 89 0.0 0.0 0.00 0.00 0.00 57 1009.2
20210618203221 89 0.0 0.0 0.00 0.00 0.00 57 1009.2
20210618202721 89 0.0 0.0 0.00 0.00 0.00 58 1009.3
20210618202216 90 0.0 0.0 0.00 0.00 0.00 58 1009.4
20210618201703 90 0.0 0.0 0.00 0.00 0.00 57 1009.4
20210618201146 90 0.0 0.0 0.00 0.00 0.00 59 1009.4
20210618200634 89 0.0 0.0 0.00 0.00 0.00 55 1009.3
20210618200135 89 0.0 0.0 0.00 0.00 0.00 57 1009.4
20210618195626 89 0.0 0.0 0.00 0.00 0.00 58 1009.5
20210618195127 89 0.0 0.0 0.00 0.00 0.00 57 1009.5
20210618194622 89 0.0 0.0 0.00 0.00 0.00 56 1009.6
20210618194117 90 0.0 0.0 0.00 0.00 0.00 58 1009.6
20210618193618 90 0.0 0.0 0.00 0.00 0.00 59 1009.7
20210618193106 89 0.0 0.0 0.00 0.00 0.00 58 1009.8
20210618192602 89 0.0 0.0 0.00 0.00 0.00 58 1009.9
20210618192042 89 0.0 0.0 0.00 0.00 0.00 58 1009.9
20210618191543 89 0.0 0.0 0.00 0.00 0.00 59 1009.9
20210618191030 89 0.0 0.0 0.00 0.00 0.00 60 1010.0
20210618190533 89 0.0 0.0 0.00 0.00 0.00 59 1010.1
20210618190029 89 0.0 0.0 0.00 0.00 0.00 59 1010.1
20210618185528 89 0.0 0.0 0.00 0.00 0.00 60 1010.2
20210618185026 89 0.0 0.0 0.00 0.00 0.00 60 1010.2
20210618184526 89 0.0 0.0 0.00 0.00 0.00 60 1010.3
20210618184023 89 0.0 0.0 0.00 0.00 0.00 61 1010.3
20210618183438 88 0.0 0.0 0.00 0.00 0.00 60 1010.4
20210618182938 89 0.0 0.0 0.00 0.00 0.00 61 1010.6
20210618182438 88 0.0 0.0 0.00 0.00 0.00 60 1010.5
20210618181930 88 0.0 0.0 0.00 0.00 0.00 59 1010.6
20210618181428 88 0.0 0.0 0.00 0.00 0.00 60 1010.7
20210618180926 88 0.0 0.0 0.00 0.00 0.00 60 1010.7
20210618180422 88 0.0 0.0 0.00 0.00 0.00 59 1010.8
20210618175920 88 0.0 0.0 0.00 0.00 0.00 60 1010.7
20210618175420 88 0.0 0.0 0.00 0.00 0.00 60 1010.8
20210618174918 88 0.0 0.0 0.00 0.00 0.00 60 1010.9
20210618174419 88 0.0 0.0 0.00 0.00 0.00 60 1010.9
20210618173914 87 0.0 0.0 0.00 0.00 0.00 60 1010.9
20210618173406 87 0.0 0.0 0.00 0.00 0.00 60 1011.0
20210618172904 87 0.0 0.0 0.00 0.00 0.00 60 1011.0
20210618172401 87 0.0 0.0 0.00 0.00 0.00 60 1011.0
20210618171844 87 0.0 0.0 0.00 0.00 0.00 60 1011.1
20210618171340 87 0.0 0.0 0.00 0.00 0.00 60 1011.1
20210618170827 86 0.0 0.0 0.00 0.00 0.00 60 1011.1
20210618170321 86 0.0 0.0 0.00 0.00 0.00 60 1011.1
20210618165821 85 0.0 0.0 0.00 0.00 0.00 60 1011.1
20210618165317 85 0.0 0.0 0.00 0.00 0.00 60 1011.2
20210618164816 85 0.0 0.0 0.00 0.00 0.00 60 1011.3
20210618164300 85 0.0 0.0 0.00 0.00 0.00 60 1011.2
20210618163752 85 0.0 0.0 0.00 0.00 0.00 60 1011.3
20210618163238 85 0.0 0.0 0.00 0.00 0.00 59 1011.3
20210618162733 85 0.0 0.0 0.00 0.00 0.00 59 1011.3
20210618162221 85 0.0 0.0 0.00 0.00 0.00 60 1011.2
20210618161720 85 0.0 0.0 0.00 0.00 0.00 59 1011.2
20210618161218 85 0.0 0.0 0.00 0.00 0.00 58 1011.3
20210618160719 85 0.0 0.0 0.00 0.00 0.00 57 1011.3
20210618160216 85 0.0 0.0 0.00 0.00 0.00 57 1011.4
20210618155714 84 0.0 0.0 0.00 0.00 0.00 56 1011.5
20210618155212 84 0.0 0.0 0.00 0.00 0.00 57 1011.5